EW5945 Weather Reports


Display with metric or nautical units.
time (UTC)temp
F
wind
direction
speed
MPH
gust
MPH
rain 1hr
in
rain 24hr
in
rain mn
in
humidity
%
barometer
mb
20260504234731 67 208 4.0 9.0 0.00 0.00 0.06 66 1015.9
20260504234230 68 225 4.0 13.0 0.00 0.00 0.06 65 1015.9
20260504233727 68 213 11.0 22.0 0.00 0.00 0.06 64 1015.9
20260504233227 68 228 11.0 18.0 0.00 0.00 0.06 64 1015.9
20260504232728 68 226 11.0 25.0 0.00 0.00 0.06 63 1015.9
20260504232231 68 222 11.0 22.0 0.00 0.00 0.06 63 1015.9
20260504231731 69 224 13.0 23.0 0.00 0.00 0.06 63 1015.9
20260504231230 69 210 9.0 14.0 0.00 0.00 0.06 62 1015.9
20260504230729 69 196 13.0 20.0 0.00 0.00 0.06 62 1015.9
20260504230228 69 199 4.0 11.0 0.00 0.00 0.06 62 1015.9
20260504225729 70 165 13.0 20.0 0.00 0.00 0.06 62 1015.9
20260504225230 70 227 13.0 23.0 0.00 0.00 0.06 61 1015.9
20260504224731 71 234 11.0 22.0 0.00 0.00 0.06 59 1015.9
20260504224228 70 236 7.0 13.0 0.00 0.00 0.06 61 1015.9
20260504223728 71 202 9.0 23.0 0.00 0.00 0.06 60 1015.9
20260504223228 71 203 7.0 13.0 0.00 0.00 0.06 60 1015.9
20260504222730 71 168 7.0 18.0 0.00 0.00 0.06 60 1015.6
20260504222229 71 224 9.0 18.0 0.00 0.00 0.06 61 1015.9
20260504221728 72 173 7.0 16.0 0.00 0.00 0.06 59 1015.9
20260504221231 72 173 7.0 18.0 0.00 0.00 0.06 60 1015.9
20260504220730 72 238 9.0 23.0 0.00 0.00 0.06 59 1015.9
20260504220228 72 208 7.0 16.0 0.00 0.00 0.06 59 1015.9
20260504215727 72 215 13.0 29.0 0.00 0.00 0.06 58 1015.9
20260504215230 72 206 13.0 18.0 0.01 0.00 0.06 56 1015.9
20260504214729 72 215 18.0 29.0 0.01 0.00 0.06 57 1015.9
20260504214227 72 252 9.0 29.0 0.01 0.00 0.06 56 1015.9
20260504213728 72 219 9.0 31.0 0.01 0.00 0.06 58 1015.9
20260504213230 72 143 9.0 16.0 0.01 0.00 0.06 59 1015.9
20260504212734 73 150 11.0 18.0 0.01 0.00 0.06 58 1015.9
20260504212230 72 218 9.0 23.0 0.01 0.00 0.06 58 1015.9
20260504211729 73 206 7.0 25.0 0.01 0.00 0.06 56 1015.9
20260504211230 73 180 9.0 25.0 0.01 0.00 0.06 58 1015.9
20260504210732 73 267 11.0 20.0 0.01 0.00 0.06 56 1015.9
20260504210229 73 189 13.0 27.0 0.01 0.00 0.06 57 1015.9
20260504205729 73 226 18.0 23.0 0.00 0.00 0.06 57 1015.9
20260504205227 73 169 11.0 29.0 0.00 0.00 0.00 55 1015.9
20260504204729 74 200 13.0 25.0 0.00 0.00 0.00 57 1015.9
20260504204228 74 201 11.0 22.0 0.00 0.00 0.00 57 1015.9
20260504203728 74 194 7.0 20.0 0.00 0.00 0.00 55 1015.9
20260504203229 74 212 7.0 9.0 0.00 0.00 0.00 56 1015.9
20260504202729 75 217 7.0 18.0 0.00 0.00 0.00 57 1015.9
20260504202228 75 222 9.0 20.0 0.00 0.00 0.00 59 1015.9
20260504201728 74 191 7.0 22.0 0.00 0.00 0.00 58 1016.3
20260504201228 74 174 7.0 18.0 0.00 0.00 0.00 59 1016.3
20260504200728 74 353 9.0 18.0 0.00 0.00 0.00 58 1016.3
20260504200230 75 229 15.0 23.0 0.00 0.00 0.00 59 1016.3
20260504195729 74 209 15.0 25.0 0.00 0.00 0.00 60 1015.9
20260504195231 75 212 13.0 16.0 0.00 0.00 0.00 59 1016.3
20260504194729 75 188 11.0 23.0 0.00 0.00 0.00 58 1015.9
20260504194230 75 212 4.0 13.0 0.00 0.00 0.00 59 1016.3
20260504193729 75 162 7.0 20.0 0.00 0.00 0.00 63 1016.3
20260504193230 75 163 4.0 9.0 0.00 0.00 0.00 60 1016.3
20260504192730 75 146 7.0 16.0 0.00 0.00 0.00 60 1016.3
20260504192229 74 206 4.0 14.0 0.00 0.00 0.00 62 1016.3
20260504191732 74 248 4.0 11.0 0.00 0.00 0.00 61 1016.6
20260504191232 74 169 4.0 11.0 0.00 0.00 0.00 60 1016.6
20260504190729 74 169 4.0 7.0 0.00 0.00 0.00 60 1016.3
20260504190229 74 170 7.0 13.0 0.00 0.00 0.00 61 1016.6
20260504185729 74 195 4.0 7.0 0.00 0.00 0.00 63 1016.6
20260504185230 75 171 2.0 5.0 0.00 0.00 0.00 59 1016.6
20260504184729 75 127 4.0 9.0 0.00 0.00 0.00 60 1016.6
20260504184227 75 160 2.0 7.0 0.00 0.00 0.00 62 1016.9
20260504183727 76 200 4.0 13.0 0.00 0.00 0.00 63 1016.9
20260504183229 75 224 2.0 7.0 0.00 0.00 0.00 60 1016.9
20260504182729 75 206 4.0 5.0 0.00 0.00 0.00 60 1016.9
20260504182229 75 208 4.0 18.0 0.00 0.00 0.00 62 1016.9
20260504181730 74 215 4.0 11.0 0.00 0.00 0.00 62 1016.9
20260504181230 74 128 4.0 11.0 0.00 0.00 0.00 62 1016.9
20260504180727 73 171 7.0 13.0 0.00 0.00 0.00 63 1016.9
20260504180229 74 238 4.0 11.0 0.00 0.00 0.00 63 1016.9
20260504175729 74 183 4.0 11.0 0.00 0.00 0.00 62 1016.9
20260504175230 75 159 7.0 14.0 0.00 0.00 0.00 64 1016.9
20260504174728 75 190 4.0 9.0 0.00 0.00 0.00 61 1016.9
20260504174230 75 119 4.0 9.0 0.00 0.00 0.00 64 1016.9
20260504173256 75 174 2.0 7.0 0.00 0.00 0.00 62 1016.9
20260504172729 74 127 4.0 7.0 0.00 0.00 0.00 62 1017.3
20260504172230 73 159 2.0 5.0 0.00 0.00 0.00 64 1017.3
20260504171729 72 196 4.0 9.0 0.00 0.00 0.00 64 1017.3
20260504171230 72 161 4.0 7.0 0.00 0.00 0.00 66 1017.3
20260504170729 74 115 4.0 7.0 0.00 0.00 0.00 62 1017.3
20260504170228 73 198 4.0 11.0 0.00 0.00 0.00 62 1017.3
20260504160229 72 213 4.0 13.0 0.00 0.00 0.00 56 1017.6
20260504150730 70 200 9.0 18.0 0.00 0.00 0.00 59 1017.9
20260504150236 70 239 11.0 14.0 0.00 0.00 0.00 58 1017.9
20260504141229 67 256 13.0 18.0 0.00 0.00 0.00 64 1018.3
20260504140729 66 221 13.0 25.0 0.00 0.00 0.00 64 1018.3
20260504140229 66 240 13.0 18.0 0.00 0.00 0.00 65 1018.3
20260504130729 62 210 7.0 9.0 0.00 0.00 0.00 78 1018.3
20260504130230 61 223 4.0 11.0 0.00 0.00 0.00 80 1018.3
20260504120231 52 207 0.0 4.0 0.00 0.00 0.00 99 1018.6
20260504110229 46 220 0.0 0.0 0.00 0.00 0.00 98 1018.6
20260504100229 45 215 0.0 0.0 0.00 0.00 0.00 98 1018.6
20260504081729 46 242 0.0 0.0 0.00 0.00 0.00 97 1018.6
20260504081227 47 241 0.0 0.0 0.00 0.00 0.00 97 1018.6
20260504080728 47 241 0.0 0.0 0.00 0.00 0.00 97 1018.6
20260504080228 47 241 0.0 0.0 0.00 0.00 0.00 97 1018.6
20260504070228 47 259 0.0 0.0 0.00 0.00 0.00 96 1018.6
20260504060228 48 239 0.0 0.0 0.00 0.00 0.00 94 1018.6
20260504050731 49 251 0.0 0.0 0.00 0.00 0.00 93 1018.6
20260504050229 49 254 0.0 0.0 0.00 0.00 0.00 93 1018.6
20260504045727 49 245 0.0 0.0 0.00 0.00 0.00 93 1018.6
20260504045228 49 264 0.0 0.0 0.00 0.00 0.00 92 1018.6
20260504044727 49 337 0.0 0.0 0.00 0.00 0.00 92 1018.6
20260504044227 50 218 0.0 0.0 0.00 0.00 0.00 92 1018.6
20260504043727 50 220 0.0 0.0 0.00 0.00 0.00 92 1018.6
20260504043228 50 218 0.0 0.0 0.00 0.00 0.00 92 1018.6
20260504042729 50 216 0.0 0.0 0.00 0.00 0.00 92 1018.6
20260504042228 50 218 0.0 0.0 0.00 0.00 0.00 91 1018.6
20260504041729 50 215 0.0 0.0 0.00 0.00 0.00 91 1019.0
20260504041227 50 214 0.0 0.0 0.00 0.00 0.00 91 1018.6
20260504040727 50 212 0.0 0.0 0.00 0.00 0.00 91 1018.6
20260504040228 51 212 0.0 0.0 0.00 0.00 0.00 91 1018.6
20260504035728 51 212 0.0 0.0 0.00 0.00 0.00 90 1018.6
20260504035227 51 212 0.0 0.0 0.00 0.00 0.00 90 1018.6
20260504034727 51 212 0.0 0.0 0.00 0.00 0.00 90 1018.6
20260504034227 51 210 0.0 0.0 0.00 0.00 0.00 90 1018.6
20260504033727 51 210 0.0 0.0 0.00 0.00 0.00 90 1018.6
20260504033228 51 213 0.0 0.0 0.00 0.00 0.00 89 1018.6
20260504032728 51 212 0.0 0.0 0.00 0.00 0.00 89 1018.6
20260504032228 51 212 0.0 0.0 0.00 0.00 0.00 89 1019.0
20260504031728 51 213 0.0 0.0 0.00 0.00 0.00 89 1018.6
20260504030727 52 209 0.0 0.0 0.00 0.00 0.00 88 1019.0
20260504030227 52 210 0.0 0.0 0.00 0.00 0.00 87 1018.6
20260504025728 52 227 0.0 0.0 0.00 0.00 0.00 87 1018.6
20260504025227 52 201 0.0 0.0 0.00 0.00 0.00 86 1018.6
20260504024727 52 200 0.0 0.0 0.00 0.00 0.00 86 1018.6
20260504024227 52 198 0.0 0.0 0.00 0.00 0.00 85 1018.6
20260504023727 53 201 0.0 0.0 0.00 0.00 0.00 85 1018.6
20260504023227 53 200 0.0 0.0 0.00 0.00 0.00 85 1018.3
20260504022727 53 200 0.0 0.0 0.00 0.00 0.00 84 1018.6
20260504022230 53 200 0.0 0.0 0.00 0.00 0.00 84 1018.3
20260504021727 53 200 0.0 0.0 0.00 0.00 0.00 83 1018.3
20260504021227 54 200 0.0 0.0 0.00 0.00 0.00 83 1018.3
20260504020728 54 199 0.0 0.0 0.00 0.00 0.00 82 1018.3
20260504020230 54 196 0.0 0.0 0.00 0.00 0.00 82 1018.3
20260504015727 54 216 0.0 0.0 0.00 0.00 0.00 81 1018.3
20260504015227 55 226 0.0 0.0 0.00 0.00 0.00 80 1017.9
20260504014727 55 230 0.0 0.0 0.00 0.00 0.00 79 1018.3
20260504014227 55 231 0.0 0.0 0.00 0.00 0.00 78 1017.9
20260504013728 55 230 0.0 0.0 0.00 0.00 0.00 78 1017.9
20260504013228 55 229 0.0 0.0 0.00 0.00 0.00 77 1017.9
20260504012728 55 233 0.0 0.0 0.00 0.00 0.00 77 1017.9
20260504012227 55 188 0.0 0.0 0.00 0.00 0.00 76 1017.6
20260504011727 55 223 0.0 2.0 0.00 0.00 0.00 76 1017.6
20260504011227 54 207 0.0 2.0 0.00 0.00 0.00 75 1017.6
20260504010727 55 250 0.0 4.0 0.00 0.00 0.00 74 1017.6
20260504010228 55 250 0.0 4.0 0.00 0.00 0.00 73 1017.6
20260504005728 55 206 0.0 0.0 0.00 0.00 0.00 71 1017.3
20260504005228 55 205 0.0 0.0 0.00 0.00 0.00 71 1017.3
20260504004728 56 206 0.0 0.0 0.00 0.00 0.00 70 1017.3
20260504004228 56 206 0.0 0.0 0.00 0.00 0.00 70 1017.3
20260504003728 56 206 0.0 0.0 0.00 0.00 0.00 68 1017.3
20260504003227 57 207 0.0 0.0 0.00 0.00 0.00 67 1016.9
20260504002728 57 207 0.0 0.0 0.00 0.00 0.00 66 1016.9
20260504002227 58 46 0.0 0.0 0.00 0.00 0.00 64 1016.9
20260504001727 58 219 0.0 0.0 0.00 0.00 0.00 63 1016.9
20260504001228 59 219 0.0 0.0 0.00 0.00 0.00 62 1016.9
20260504000727 59 219 0.0 0.0 0.00 0.00 0.00 61 1016.6
20260504000227 60 220 0.0 0.0 0.00 0.00 0.00 59 1016.6
20260503235727 60 219 0.0 0.0 0.00 0.00 0.00 59 1016.6
20260503235228 61 222 0.0 0.0 0.00 0.00 0.00 58 1016.6